(345826) = 2007 HZ87

Discovered at Kitt Peak on 2007-04-27 by Spacewatch.

Orbit

Orbit type: Main Belt

Note: WebGL enabled browser required.

epoch2023-02-25.0
epoch JD2460000.5
perihelion date2020-10-18.33864
perihelion JD2459140.83864
argument of perihelion (°)230.35936
ascending node (°)122.24411
inclination (°)18.20625
eccentricity0.2497459
perihelion distance (AU)1.9468414
Tisserand w.r.t. Jupiter3.3
ΔV w.r.t. Earth (km/sec)10.3
semimajor axis (AU)2.5949092
mean anomaly (°)202.69732
mean daily motion (°/day)0.23578740
aphelion distance (AU)3.243
period (years)4.18
P-vector [x]0.95907336
P-vector [y]-0.04127927
P-vector [z]-0.28013268
Q-vector [x]0.10172275
Q-vector [y]0.97350146
Q-vector [z]0.20481064
absolute magnitude16.32
phase slope0.15
uncertainty0
referenceMPO 745323
observations used355
oppositions12
arc length (days)8153
first opposition used2001
last opposition used2023
residual rms (arc-secs)0.81
perturbers coarse indicatorM-v
perturbers precise indicator003Ek
first observation date used2001-01-15.0
last observation date used2023-05-13.0
computer nameMPCLINUX
JD of orbit computation2456240.377454
perihelion JD uncertainty (days)1.5234E-04
argument of perihelion uncertainty (°)6.0279E-05
ascending node uncertainty (°)5.1425E-05
inclination uncertainty (°)8.7424E-06
eccentricity uncertainty 7.1892E-08
perihelion distance uncertainty (AU)1.9487E-07
Minimum Orbit Intersection Distances (in AU)
for orbit epoch: 2460000.5, reference: E2023-JE0
Mercury1.56759
Venus1.23649
Earth0.98313
Mars0.62409
Jupiter2.27036
Saturn6.1485
Uranus15.287
Neptune27.3784

Observations

362 total observations over interval: 2001 01 15.30320 – 2023 05 13.287518
These data are available for download (format description).

Date (UT) J2000 RA J2000 Dec Magn Location Ref
2001 01 15.30320 07 59 12.76 +17 55 22.6 20.7 V 691 – Steward Observatory, Kitt Peak-Spacewatch MPS 382215
2001 01 15.32551 07 59 11.35 +17 55 34.2 20.6 V 691 – Steward Observatory, Kitt Peak-Spacewatch MPS 382215
2001 01 15.34751 07 59 10.02 +17 55 45.2 20.6 V 691 – Steward Observatory, Kitt Peak-Spacewatch MPS 382215
2007 04 27.33798 17 23 23.88 -00 47 04.8   291 – LPL/Spacewatch II MPS 209139
2007 04 27.34337 17 23 23.81 -00 47 03.5   291 – LPL/Spacewatch II MPS 209139
2007 04 27.34866 17 23 23.73 -00 47 01.7   291 – LPL/Spacewatch II MPS 209139
2007 04 28.32687 17 23 09.11 -00 42 59.8   291 – LPL/Spacewatch II MPS 209139
2007 04 28.34187 17 23 08.87 -00 42 55.9   291 – LPL/Spacewatch II MPS 209139
2007 04 28.35204 17 23 08.76 -00 42 53.9   291 – LPL/Spacewatch II MPS 209139
2007 05 07.40604 17 19 41.88 -00 09 21.7 20.0 V G96 – Mt. Lemmon Survey MPS 212661
2007 05 07.41481 17 19 41.66 -00 09 20.1 20.2 V G96 – Mt. Lemmon Survey MPS 212661
2007 05 07.42362 17 19 41.34 -00 09 18.5 20.1 V G96 – Mt. Lemmon Survey MPS 212661
2007 05 07.43250 17 19 41.08 -00 09 16.4 20.5 V G96 – Mt. Lemmon Survey MPS 212661
2007 05 16.38843 17 14 14.34 +00 14 29.6   291 – LPL/Spacewatch II MPS 212661
2007 05 16.41164 17 14 13.33 +00 14 32.4   291 – LPL/Spacewatch II MPS 212661
2007 05 16.43717 17 14 12.18 +00 14 35.4   291 – LPL/Spacewatch II MPS 212661
2007 06 08.40163 16 53 39.96 +00 07 44.0 19.7 V 691 – Steward Observatory, Kitt Peak-Spacewatch MPS 212661
2007 06 08.41920 16 53 38.89 +00 07 41.0 19.9 V 691 – Steward Observatory, Kitt Peak-Spacewatch MPS 212661
2007 06 08.43677 16 53 37.82 +00 07 37.5 19.6 V 691 – Steward Observatory, Kitt Peak-Spacewatch MPS 212661
2007 06 16.35065 16 45 48.23 -00 22 15.3 21.1 V 691 – Steward Observatory, Kitt Peak-Spacewatch MPS 212661
2007 06 16.36826 16 45 47.15 -00 22 20.5 20.2 V 691 – Steward Observatory, Kitt Peak-Spacewatch MPS 212661
2007 06 16.38586 16 45 46.10 -00 22 25.8 20.3 V 691 – Steward Observatory, Kitt Peak-Spacewatch MPS 212661
2008 12 22.31332 05 17 35.91 +03 53 58.5 19.4 V 703 – Catalina Sky Survey MPS 309477
2008 12 22.31926 05 17 35.37 +03 54 00.7 20.2 V 703 – Catalina Sky Survey MPS 309477
2008 12 22.32538 05 17 34.98 +03 54 03.8 19.6 V 703 – Catalina Sky Survey MPS 309477
2008 12 22.33141 05 17 34.62 +03 54 07.2 19.6 V 703 – Catalina Sky Survey MPS 309477
2008 12 31.21288 05 09 27.61 +05 10 23.6 19.7 V G96 – Mt. Lemmon Survey MPS 309477
2008 12 31.22150 05 09 27.14 +05 10 28.4 19.6 V G96 – Mt. Lemmon Survey MPS 309477
2008 12 31.23009 05 09 26.71 +05 10 33.0 19.6 V G96 – Mt. Lemmon Survey MPS 309477
2008 12 31.23868 05 09 26.24 +05 10 37.9 19.9 V G96 – Mt. Lemmon Survey MPS 309477
2011 04 28.56119 16 05 38.231 +05 38 45.60 20.9 g F51 – Pan-STARRS 1, Haleakala MPS 380069
2011 04 28.57290 16 05 37.726 +05 38 49.17 21.2 g F51 – Pan-STARRS 1, Haleakala MPS 380069
2011 04 28.58555 16 05 37.160 +05 38 53.17 20.4 r F51 – Pan-STARRS 1, Haleakala MPS 380069
2011 04 28.59685 16 05 36.668 +05 38 56.65 20.5 r F51 – Pan-STARRS 1, Haleakala MPS 380069
2011 04 29.38308 16 05 03.43 +05 42 56.1 20.3 V 691 – Steward Observatory, Kitt Peak-Spacewatch MPS 381220
2011 04 29.40081 16 05 02.64 +05 43 01.7 20.3 V 691 – Steward Observatory, Kitt Peak-Spacewatch MPS 381220
2011 04 29.41853 16 05 01.95 +05 43 08.9 20.1 V 691 – Steward Observatory, Kitt Peak-Spacewatch MPS 381220
2011 04 30.40126 16 04 19.16 +05 48 00.3 20.2 V G96 – Mt. Lemmon Survey MPS 381220
2011 04 30.40486 16 04 19.02 +05 48 01.2 20.2 V G96 – Mt. Lemmon Survey MPS 381220
2011 04 30.40844 16 04 18.84 +05 48 02.3 20.1 V G96 – Mt. Lemmon Survey MPS 381220
2011 04 30.41206 16 04 18.66 +05 48 03.6 20.2 V G96 – Mt. Lemmon Survey MPS 381220
2012 10 21.35557 04 10 50.49 -10 26 11.0 19.3   704 – Lincoln Laboratory ETS, New Mexico MPS 437908
2012 10 21.36974 04 10 49.99 -10 26 16.4 19.6   704 – Lincoln Laboratory ETS, New Mexico MPS 437908
2012 10 21.38380 04 10 49.48 -10 26 22.0 19.4   704 – Lincoln Laboratory ETS, New Mexico MPS 437908
2012 10 21.39920 04 10 48.99 -10 26 26.9 19.7   704 – Lincoln Laboratory ETS, New Mexico MPS 437908
2012 10 21.41326 04 10 48.46 -10 26 31.6 19.8   704 – Lincoln Laboratory ETS, New Mexico MPS 437908
2012 10 27.505007 04 06 56.538 -10 57 48.26 18.9 i F51 – Pan-STARRS 1, Haleakala MPS 439520
2012 10 27.518429 04 06 55.922 -10 57 51.84 18.8 i F51 – Pan-STARRS 1, Haleakala MPS 439520
2012 11 04.421940 04 00 29.849 -11 22 47.63 18.7 i F51 – Pan-STARRS 1, Haleakala MPS 439520
2012 11 04.434767 04 00 29.126 -11 22 49.12 18.7 i F51 – Pan-STARRS 1, Haleakala MPS 439520
2012 11 08.416090 03 56 47.292 -11 27 32.63 20.7 g F51 – Pan-STARRS 1, Haleakala MPS 439520
2012 11 08.428755 03 56 46.590 -11 27 32.98 19.6 g F51 – Pan-STARRS 1, Haleakala MPS 439520
2012 11 08.441816 03 56 45.801 -11 27 33.27 19.0 r F51 – Pan-STARRS 1, Haleakala MPS 439520
2012 11 08.454064 03 56 45.062 -11 27 33.65 19.0 r F51 – Pan-STARRS 1, Haleakala MPS 439520
2013 01 07.11730 03 21 14.94 -02 45 30.4 19.7 V 703 – Catalina Sky Survey MPS 450889
2013 01 07.12295 03 21 15.04 -02 45 25.0 19.9 V 703 – Catalina Sky Survey MPS 450889
2013 01 07.12856 03 21 15.04 -02 45 20.8 20.1 V 703 – Catalina Sky Survey MPS 450889
2013 01 07.13418 03 21 15.19 -02 45 16.6 19.8 V 703 – Catalina Sky Survey MPS 450889
2013 01 16.29284 03 23 56.343 -00 36 44.52 20.3 r F51 – Pan-STARRS 1, Haleakala MPS 452255
2013 01 16.30505 03 23 56.634 -00 36 34.29 20.2 r F51 – Pan-STARRS 1, Haleakala MPS 452255
2015 05 19.33565 14 37 49.90 +12 18 16.7 19.7 V 703 – Catalina Sky Survey MPS 608478
2015 05 19.35082 14 37 49.11 +12 18 16.2 20.8 V 703 – Catalina Sky Survey MPS 608478
2015 05 19.35842 14 37 48.61 +12 18 15.7 21.3 V 703 – Catalina Sky Survey MPS 608478
2016 07 14.40595 00 57 35.45 -09 45 17.4 19.8 r G45 – Space Surveillance Telescope, Atom Site MPS 721187
2016 07 14.41565 00 57 36.34 -09 45 20.5 20.0 r G45 – Space Surveillance Telescope, Atom Site MPS 721187
2016 07 14.42060 00 57 36.85 -09 45 21.7 20.2 r G45 – Space Surveillance Telescope, Atom Site MPS 721187
2016 07 14.42548 00 57 37.27 -09 45 23.3 19.8 r G45 – Space Surveillance Telescope, Atom Site MPS 721187
2016 09 04.62355 01 49 24.12 -19 15 10.3 19.0 R Q60 – ISON-SSO Observatory, Siding Spring MPS 729762
2016 09 04.63330 01 49 24.16 -19 15 18.7 19.0 R Q60 – ISON-SSO Observatory, Siding Spring MPS 729762
2016 09 04.64294 01 49 24.29 -19 15 27.9 19.1 R Q60 – ISON-SSO Observatory, Siding Spring MPS 729762
2016 09 06.52361 01 49 43.472 -19 43 58.77 18.8 w F51 – Pan-STARRS 1, Haleakala MPS 729762
2016 09 06.53529 01 49 43.529 -19 44 09.37 18.8 w F51 – Pan-STARRS 1, Haleakala MPS 729762
2016 09 06.54695 01 49 43.585 -19 44 19.93 18.8 w F51 – Pan-STARRS 1, Haleakala MPS 729762
2016 09 09.31692 01 49 58.12 -20 26 00.0 19.0 G G45 – Space Surveillance Telescope, Atom Site MPS 1609844
2016 09 09.36483 01 49 58.10 -20 26 44.0 19.2 G G45 – Space Surveillance Telescope, Atom Site MPS 1609844
2016 09 09.41943 01 49 58.05 -20 27 33.0 18.9 G G45 – Space Surveillance Telescope, Atom Site MPS 1609844
2016 09 09.46431 01 49 58.01 -20 28 12.9 17.9 G G45 – Space Surveillance Telescope, Atom Site MPS 1609844
2016 09 10.19602 01 49 58.88 -20 39 09.3 18.4 R Z22 – MASTER-IAC Observatory, Tenerife MPS 729762
2016 09 10.20375 01 49 58.79 -20 39 16.6 19.6 R Z22 – MASTER-IAC Observatory, Tenerife MPS 729762
2016 09 12.42132 01 49 54.34 -21 12 08.0 18.4 V 703 – Catalina Sky Survey MPS 729762
2016 09 12.43943 01 49 54.20 -21 12 25.1 18.6 V 703 – Catalina Sky Survey MPS 729762
2016 09 19.34115 01 48 35.05 -22 50 19.4 19.1 G G45 – Space Surveillance Telescope, Atom Site MPS 1609844
2016 09 19.38392 01 48 34.14 -22 50 54.1 19.0 G G45 – Space Surveillance Telescope, Atom Site MPS 1609844
2016 09 19.42101 01 48 33.34 -22 51 25.3 18.6 G G45 – Space Surveillance Telescope, Atom Site MPS 1609844
2016 09 19.45980 01 48 32.50 -22 51 56.1 18.1 G G45 – Space Surveillance Telescope, Atom Site MPS 1609844
2016 10 04.25018 01 40 55.89 -25 38 37.3 18.7 G G45 – Space Surveillance Telescope, Atom Site MPS 1609844
2016 10 04.30664 01 40 53.38 -25 39 06.0 18.7 G G45 – Space Surveillance Telescope, Atom Site MPS 1609844
